| time (UTC) | temp F | wind direction | speed MPH | gust MPH | rain 1hr in | rain 24hr in | rain mn in | humidity % | barometer mb |
| 20260509171233 | 0 | 235 | 0.0 | 1.0 | 0.00 | 0.00 | 0.00 | 1014.5 | |
| 20260509170730 | 0 | 235 | 0.0 | 1.0 | 0.00 | 0.00 | 0.00 | 1014.5 | |
| 20260509170226 | 0 | 326 | 0.0 | 1.0 | 0.00 | 0.00 | 0.00 | 1014.5 | |
| 20260509165724 | 0 | 225 | 0.0 | 1.0 | 0.00 | 0.00 | 0.00 | 1014.3 | |
| 20260509165220 | 0 | 205 | 0.0 | 1.0 | 0.00 | 0.00 | 0.00 | 1014.3 | |
| 20260509164716 | 0 | 252 | 1.0 | 2.0 | 0.00 | 0.00 | 0.00 | ||
| 20260509164212 | 0 | 212 | 0.0 | 4.0 | 0.00 | 0.00 | 0.00 | ||
| 20260509163709 | 0 | 205 | 1.0 | 5.0 | 0.00 | 0.00 | 0.00 | ||
| 20260509163206 | 0 | 220 | 2.0 | 4.0 | 0.00 | 0.00 | 0.00 | ||
| 20260509162703 | 0 | 247 | 2.0 | 3.0 | 0.00 | 0.00 | 0.00 | ||
| 20260509162159 | 0 | 173 | 2.0 | 6.0 | 0.00 | 0.00 | 0.00 | ||
| 20260509161654 | 0 | 217 | 0.0 | 6.0 | 0.00 | 0.00 | 0.00 | ||
| 20260509161150 | 0 | 226 | 2.0 | 7.0 | 0.00 | 0.00 | 0.00 | ||
| 20260509160646 | 0 | 251 | 2.0 | 4.0 | 0.00 | 0.00 | 0.00 | ||
| 20260509160142 | 0 | 235 | 2.0 | 4.0 | 0.00 | 0.00 | 0.00 | ||
| 20260509155638 | 0 | 301 | 0.0 | 2.0 | 0.00 | 0.00 | 0.00 | ||
| 20260509155134 | 0 | 206 | 2.0 | 3.0 | 0.00 | 0.00 | 0.00 | ||
| 20260509154630 | 0 | 225 | 1.0 | 3.0 | 0.00 | 0.00 | 0.00 | ||
| 20260509154127 | 0 | 293 | 0.0 | 2.0 | 0.00 | 0.00 | 0.00 | 1013.0 | |
| 20260509153625 | 0 | 92 | 1.0 | 3.0 | 0.00 | 0.00 | 0.00 | 1013.0 | |
| 20260509153121 | 0 | 217 | 0.0 | 1.0 | 0.00 | 0.00 | 0.00 | 1013.0 | |
| 20260509152617 | 0 | 217 | 0.0 | 3.0 | 0.00 | 0.00 | 0.00 | 1013.0 | |
| 20260509152115 | 0 | 204 | 0.0 | 3.0 | 0.00 | 0.00 | 0.00 | 1013.0 | |
| 20260509151611 | 0 | 205 | 0.0 | 3.0 | 0.00 | 0.00 | 0.00 | 1013.0 | |
| 20260509151109 | 0 | 214 | 0.0 | 3.0 | 0.00 | 0.00 | 0.00 | 1013.0 | |
| 20260509150606 | 0 | 216 | 2.0 | 5.0 | 0.00 | 0.00 | 0.00 | 1013.0 | |
| 20260509150104 | 0 | 200 | 1.0 | 3.0 | 0.00 | 0.00 | 0.00 | 1013.0 | |
| 20260509145559 | 0 | 227 | 1.0 | 3.0 | 0.00 | 0.00 | 0.00 | 1013.0 | |
| 20260509145055 | 0 | 233 | 2.0 | 3.0 | 0.00 | 0.00 | 0.00 | 1013.0 | |
| 20260509144552 | 0 | 240 | 3.0 | 4.0 | 0.00 | 0.00 | 0.00 | 1013.0 | |
| 20260509144049 | 0 | 223 | 3.0 | 4.0 | 0.00 | 0.00 | 0.00 | 1013.2 | |
| 20260509143546 | 0 | 249 | 1.0 | 3.0 | 0.00 | 0.00 | 0.00 | 1013.1 | |
| 20260509143038 | 0 | 215 | 2.0 | 4.0 | 0.00 | 0.00 | 0.00 | 1013.1 | |
| 20260509142533 | 0 | 226 | 0.0 | 4.0 | 0.00 | 0.00 | 0.00 | 1013.0 | |
| 20260509142029 | 0 | 234 | 1.0 | 5.0 | 0.00 | 0.00 | 0.00 | 1013.0 | |
| 20260509141526 | 0 | 267 | 3.0 | 4.0 | 0.00 | 0.00 | 0.00 | 1013.0 | |
| 20260509141023 | 0 | 248 | 2.0 | 3.0 | 0.00 | 0.00 | 0.00 | 1012.8 | |
| 20260509140519 | 0 | 220 | 1.0 | 3.0 | 0.00 | 0.00 | 0.00 | 1012.8 | |
| 20260509140018 | 0 | 222 | 2.0 | 2.0 | 0.00 | 0.00 | 0.00 | 1013.1 | |
| 20260509135514 | 0 | 234 | 1.0 | 3.0 | 0.00 | 0.00 | 0.00 | 1013.1 | |
| 20260509135012 | 0 | 214 | 0.0 | 4.0 | 0.00 | 0.00 | 0.00 | 1013.1 | |
| 20260509134509 | 0 | 195 | 0.0 | 4.0 | 0.00 | 0.00 | 0.00 | 1013.1 | |
| 20260509134007 | 0 | 326 | 1.0 | 3.0 | 0.00 | 0.00 | 0.00 | 1013.1 | |
| 20260509133503 | 0 | 218 | 2.0 | 3.0 | 0.00 | 0.00 | 0.00 | 1012.7 | |
| 20260509133001 | 0 | 155 | 4.0 | 4.0 | 0.00 | 0.00 | 0.00 | 1013.1 | |
| 20260509132459 | 0 | 199 | 2.0 | 4.0 | 0.00 | 0.00 | 0.00 | 1013.1 | |
| 20260509131956 | 0 | 218 | 0.0 | 3.0 | 0.00 | 0.00 | 0.00 | 1013.1 | |
| 20260509131453 | 0 | 283 | 2.0 | 3.0 | 0.00 | 0.00 | 0.00 | 1012.9 | |
| 20260509130949 | 0 | 136 | 0.0 | 4.0 | 0.00 | 0.00 | 0.00 | 1012.9 | |
| 20260509130445 | 0 | 205 | 0.0 | 3.0 | 0.00 | 0.00 | 0.00 | 1012.9 | |
| 20260509125942 | 0 | 180 | 0.0 | 2.0 | 0.00 | 0.00 | 0.00 | 1012.9 | |
| 20260509125439 | 0 | 196 | 0.0 | 2.0 | 0.00 | 0.00 | 0.00 | 1012.9 | |
| 20260509124935 | 0 | 196 | 1.0 | 3.0 | 0.00 | 0.00 | 0.00 | 1012.9 | |
| 20260509124432 | 0 | 202 | 0.0 | 2.0 | 0.00 | 0.00 | 0.00 | 1013.2 | |
| 20260509123929 | 0 | 246 | 0.0 | 1.0 | 0.00 | 0.00 | 0.00 | 1013.2 | |
| 20260509123427 | 0 | 228 | 1.0 | 3.0 | 0.00 | 0.00 | 0.00 | 1013.1 | |
| 20260509122922 | 0 | 165 | 0.0 | 2.0 | 0.00 | 0.00 | 0.00 | 1013.5 | |
| 20260509122419 | 0 | 225 | 0.0 | 2.0 | 0.00 | 0.00 | 0.00 | 1013.6 | |
| 20260509121916 | 0 | 229 | 0.0 | 1.0 | 0.00 | 0.00 | 0.00 | ||
| 20260509121413 | 0 | 177 | 1.0 | 1.0 | 0.00 | 0.00 | 0.00 | ||
| 20260509120911 | 0 | 333 | 0.0 | 2.0 | 0.00 | 0.00 | 0.00 | ||
| 20260509120409 | 0 | 199 | 0.0 | 2.0 | 0.00 | 0.00 | 0.00 | ||
| 20260509115907 | 0 | 185 | 1.0 | 2.0 | 0.00 | 0.00 | 0.00 | ||
| 20260509115404 | 0 | 200 | 0.0 | 1.0 | 0.00 | 0.00 | 0.00 | ||
| 20260509114901 | 0 | 150 | 0.0 | 2.0 | 0.00 | 0.00 | 0.00 | ||
| 20260509114400 | 0 | 154 | 0.0 | 2.0 | 0.00 | 0.00 | 0.00 | ||
| 20260509113859 | 0 | 31 | 0.0 | 0.0 | 0.00 | 0.00 | 0.00 | ||
| 20260509113355 | 0 | 230 | 0.0 | 1.0 | 0.00 | 0.00 | 0.00 | ||
| 20260509112852 | 0 | 154 | 0.0 | 0.0 | 0.00 | 0.00 | 0.00 | ||
| 20260509112349 | 0 | 117 | 0.0 | 1.0 | 0.00 | 0.00 | 0.00 | ||
| 20260509111846 | 0 | 62 | 0.0 | 1.0 | 0.00 | 0.00 | 0.00 | ||
| 20260509111343 | 0 | 230 | 0.0 | 2.0 | 0.00 | 0.00 | 0.00 | ||
| 20260509110842 | 0 | 213 | 2.0 | 2.0 | 0.00 | 0.00 | 0.00 | ||
| 20260509110337 | 0 | 149 | 0.0 | 2.0 | 0.00 | 0.00 | 0.00 | ||
| 20260509105836 | 0 | 186 | 0.0 | 2.0 | 0.00 | 0.00 | 0.00 | ||
| 20260509105333 | 0 | 205 | 0.0 | 1.0 | 0.00 | 0.00 | 0.00 | ||
| 20260509104829 | 0 | 295 | 0.0 | 1.0 | 0.00 | 0.00 | 0.00 | ||
| 20260509104326 | 0 | 326 | 0.0 | 1.0 | 0.00 | 0.00 | 0.00 | ||
| 20260509103824 | 0 | 139 | 1.0 | 2.0 | 0.00 | 0.00 | 0.00 | ||
| 20260509103321 | 0 | 290 | 0.0 | 1.0 | 0.00 | 0.00 | 0.00 | ||
| 20260509102820 | 0 | 55 | 0.0 | 2.0 | 0.00 | 0.00 | 0.00 | ||
| 20260509102317 | 0 | 116 | 0.0 | 1.0 | 0.00 | 0.00 | 0.00 | ||
| 20260509101812 | 0 | 315 | 0.0 | 1.0 | 0.00 | 0.00 | 0.00 | ||
| 20260509101309 | 0 | 46 | 0.0 | 1.0 | 0.00 | 0.00 | 0.00 | ||
| 20260509100807 | 0 | 243 | 0.0 | 2.0 | 0.00 | 0.00 | 0.00 | ||
| 20260509100304 | 0 | 135 | 0.0 | 1.0 | 0.00 | 0.00 | 0.00 | ||
| 20260509095800 | 0 | 176 | 1.0 | 2.0 | 0.00 | 0.00 | 0.00 | ||
| 20260509095257 | 0 | 120 | 0.0 | 2.0 | 0.00 | 0.00 | 0.00 | ||
| 20260509094754 | 0 | 283 | 0.0 | 1.0 | 0.00 | 0.00 | 0.00 | ||
| 20260509094251 | 0 | 218 | 0.0 | 1.0 | 0.00 | 0.00 | 0.00 | ||
| 20260509093749 | 0 | 214 | 0.0 | 2.0 | 0.00 | 0.00 | 0.00 | ||
| 20260509093246 | 0 | 25 | 0.0 | 2.0 | 0.00 | 0.00 | 0.00 | ||
| 20260509092744 | 0 | 341 | 0.0 | 1.0 | 0.00 | 0.00 | 0.00 | ||
| 20260509092242 | 0 | 215 | 0.0 | 2.0 | 0.00 | 0.00 | 0.00 | ||
| 20260509091740 | 0 | 122 | 0.0 | 1.0 | 0.00 | 0.00 | 0.00 | ||
| 20260509091236 | 0 | 242 | 0.0 | 2.0 | 0.00 | 0.00 | 0.00 | ||
| 20260509090734 | 0 | 157 | 0.0 | 1.0 | 0.00 | 0.00 | 0.00 | ||
| 20260509090231 | 0 | 224 | 0.0 | 1.0 | 0.00 | 0.00 | 0.00 | ||
| 20260509085728 | 0 | 205 | 0.0 | 1.0 | 0.00 | 0.00 | 0.00 | ||
| 20260509085225 | 0 | 141 | 1.0 | 2.0 | 0.00 | 0.00 | 0.00 | ||
| 20260509084722 | 0 | 140 | 0.0 | 2.0 | 0.00 | 0.00 | 0.00 | ||
| 20260509084218 | 0 | 125 | 0.0 | 2.0 | 0.00 | 0.00 | 0.00 | ||
| 20260509083717 | 0 | 182 | 1.0 | 2.0 | 0.00 | 0.00 | 0.00 | ||
| 20260509083213 | 0 | 202 | 0.0 | 2.0 | 0.00 | 0.00 | 0.00 | ||
| 20260509082710 | 0 | 117 | 0.0 | 1.0 | 0.00 | 0.00 | 0.00 | ||
| 20260509082206 | 0 | 124 | 0.0 | 0.0 | 0.00 | 0.00 | 0.00 | ||
| 20260509081703 | 0 | 307 | 0.0 | 2.0 | 0.00 | 0.00 | 0.00 | ||
| 20260509081201 | 0 | 154 | 0.0 | 2.0 | 0.00 | 0.00 | 0.00 | ||
| 20260509080659 | 0 | 192 | 1.0 | 3.0 | 0.00 | 0.00 | 0.00 | ||
| 20260509080156 | 0 | 153 | 0.0 | 3.0 | 0.00 | 0.00 | 0.00 | ||
| 20260509075654 | 0 | 154 | 0.0 | 3.0 | 0.00 | 0.00 | 0.00 | ||
| 20260509075151 | 0 | 172 | 0.0 | 2.0 | 0.00 | 0.00 | 0.00 | ||
| 20260509074648 | 0 | 75 | 0.0 | 1.0 | 0.00 | 0.00 | 0.00 | ||
| 20260509074145 | 0 | 142 | 0.0 | 1.0 | 0.00 | 0.00 | 0.00 | ||
| 20260509073642 | 0 | 217 | 0.0 | 1.0 | 0.00 | 0.00 | 0.00 | ||
| 20260509073138 | 0 | 98 | 0.0 | 2.0 | 0.00 | 0.00 | 0.00 | ||
| 20260509072635 | 0 | 117 | 0.0 | 2.0 | 0.00 | 0.00 | 0.00 | ||
| 20260509072132 | 0 | 133 | 0.0 | 2.0 | 0.00 | 0.00 | 0.00 | ||
| 20260509071628 | 0 | 154 | 0.0 | 3.0 | 0.00 | 0.00 | 0.00 | ||
| 20260509071125 | 0 | 170 | 2.0 | 5.0 | 0.00 | 0.00 | 0.00 | ||
| 20260509070623 | 0 | 201 | 0.0 | 6.0 | 0.00 | 0.00 | 0.00 | ||
| 20260509070119 | 0 | 195 | 0.0 | 2.0 | 0.00 | 0.00 | 0.00 | ||
| 20260509065614 | 0 | 224 | 0.0 | 2.0 | 0.00 | 0.00 | 0.00 | 1014.0 | |
| 20260509065111 | 0 | 240 | 0.0 | 2.0 | 0.00 | 0.00 | 0.00 | 1014.0 | |
| 20260509064608 | 0 | 154 | 0.0 | 2.0 | 0.00 | 0.00 | 0.00 | 1014.0 | |
| 20260509064106 | 0 | 211 | 1.0 | 3.0 | 0.00 | 0.00 | 0.00 | 1014.0 | |
| 20260509063603 | 0 | 172 | 0.0 | 2.0 | 0.00 | 0.00 | 0.00 | 1014.0 | |
| 20260509063059 | 0 | 216 | 0.0 | 2.0 | 0.00 | 0.00 | 0.00 | 1014.0 | |
| 20260509062556 | 0 | 195 | 0.0 | 2.0 | 0.00 | 0.00 | 0.00 | 1014.0 | |
| 20260509062054 | 0 | 152 | 2.0 | 3.0 | 0.00 | 0.00 | 0.00 | 1014.0 | |
| 20260509061550 | 0 | 184 | 1.0 | 2.0 | 0.00 | 0.00 | 0.00 | 1014.0 | |
| 20260509061048 | 0 | 158 | 0.0 | 6.0 | 0.00 | 0.00 | 0.00 | 1014.0 | |
| 20260509060545 | 0 | 160 | 2.0 | 2.0 | 0.00 | 0.00 | 0.00 | 1014.0 | |
| 20260509060041 | 0 | 206 | 0.0 | 7.0 | 0.00 | 0.00 | 0.00 | 1014.0 | |
| 20260509055536 | 0 | 216 | 0.0 | 5.0 | 0.00 | 0.00 | 0.00 | 1014.1 | |
| 20260509055033 | 0 | 203 | 0.0 | 4.0 | 0.00 | 0.00 | 0.00 | ||
| 20260509054529 | 0 | 154 | 1.0 | 2.0 | 0.00 | 0.00 | 0.00 | ||
| 20260509054027 | 0 | 145 | 0.0 | 2.0 | 0.00 | 0.00 | 0.00 | ||
| 20260509053526 | 0 | 155 | 0.0 | 2.0 | 0.00 | 0.00 | 0.00 | ||
| 20260509053022 | 0 | 156 | 0.0 | 2.0 | 0.00 | 0.00 | 0.00 | ||
| 20260509052520 | 0 | 176 | 0.0 | 2.0 | 0.00 | 0.00 | 0.00 | ||
| 20260509052018 | 0 | 168 | 1.0 | 3.0 | 0.00 | 0.00 | 0.00 | ||
| 20260509051516 | 0 | 117 | 0.0 | 3.0 | 0.00 | 0.00 | 0.00 | ||
| 20260509051012 | 0 | 129 | 0.0 | 1.0 | 0.00 | 0.00 | 0.00 | ||
| 20260509050509 | 0 | 146 | 1.0 | 2.0 | 0.00 | 0.00 | 0.00 | ||
| 20260509050006 | 0 | 143 | 1.0 | 1.0 | 0.00 | 0.00 | 0.00 | ||
| 20260509045503 | 0 | 142 | 0.0 | 3.0 | 0.00 | 0.00 | 0.00 | ||
| 20260509045000 | 0 | 142 | 0.0 | 2.0 | 0.00 | 0.00 | 0.00 | ||
| 20260509044458 | 0 | 205 | 0.0 | 2.0 | 0.00 | 0.00 | 0.00 | ||
| 20260509043955 | 0 | 158 | 1.0 | 2.0 | 0.00 | 0.00 | 0.00 | ||
| 20260509043450 | 0 | 126 | 0.0 | 1.0 | 0.00 | 0.00 | 0.00 | ||
| 20260509042946 | 0 | 103 | 0.0 | 1.0 | 0.00 | 0.00 | 0.00 | ||
| 20260509042443 | 0 | 297 | 0.0 | 0.0 | 0.00 | 0.00 | 0.00 | ||
| 20260509041939 | 0 | 117 | 0.0 | 1.0 | 0.00 | 0.00 | 0.00 | ||
| 20260509041436 | 0 | 117 | 0.0 | 0.0 | 0.00 | 0.00 | 0.00 | ||
| 20260509040934 | 0 | 62 | 0.0 | 0.0 | 0.00 | 0.00 | 0.00 | ||
| 20260509040432 | 0 | 62 | 0.0 | 0.0 | 0.00 | 0.00 | 0.00 | ||
| 20260509035928 | 0 | 129 | 0.0 | 0.0 | 0.00 | 0.00 | 0.00 | ||
| 20260509035425 | 0 | 127 | 0.0 | 1.0 | 0.00 | 0.00 | 0.00 | 1012.4 | |
| 20260509034922 | 0 | 205 | 0.0 | 0.0 | 0.00 | 0.00 | 0.00 | 1012.4 | |
| 20260509034420 | 0 | 205 | 0.0 | 0.0 | 0.00 | 0.00 | 0.00 | 1012.4 | |
| 20260509033917 | 0 | 142 | 0.0 | 0.0 | 0.00 | 0.00 | 0.00 | 1012.4 | |
| 20260509033414 | 0 | 193 | 0.0 | 1.0 | 0.00 | 0.00 | 0.00 | 1012.4 | |
| 20260509032910 | 0 | 117 | 0.0 | 0.0 | 0.00 | 0.00 | 0.00 | 1012.4 | |
| 20260509032408 | 0 | 117 | 0.0 | 0.0 | 0.00 | 0.00 | 0.00 | 1012.4 | |
| 20260509031906 | 0 | 129 | 0.0 | 0.0 | 0.00 | 0.00 | 0.00 | 1012.4 | |
| 20260509031403 | 0 | 129 | 0.0 | 1.0 | 0.00 | 0.00 | 0.00 | 1012.4 | |
| 20260509030900 | 0 | 217 | 0.0 | 1.0 | 0.00 | 0.00 | 0.00 | 1012.4 | |
| 20260509030358 | 0 | 177 | 0.0 | 2.0 | 0.00 | 0.00 | 0.00 | 1012.4 | |
| 20260509025855 | 0 | 164 | 0.0 | 2.0 | 0.00 | 0.00 | 0.00 | 1012.4 | |
| 20260509025350 | 0 | 160 | 0.0 | 1.0 | 0.00 | 0.00 | 0.00 | ||
| 20260509024845 | 0 | 178 | 0.0 | 2.0 | 0.00 | 0.00 | 0.00 | ||
| 20260509024342 | 0 | 187 | 1.0 | 2.0 | 0.00 | 0.00 | 0.00 | ||
| 20260509023839 | 0 | 174 | 0.0 | 2.0 | 0.00 | 0.00 | 0.00 | ||
| 20260509023336 | 0 | 142 | 0.0 | 1.0 | 0.00 | 0.00 | 0.00 | ||
| 20260509022827 | 0 | 154 | 0.0 | 0.0 | 0.00 | 0.00 | 0.00 | ||
| 20260509022325 | 0 | 117 | 0.0 | 1.0 | 0.00 | 0.00 | 0.00 | ||
| 20260509021821 | 0 | 135 | 0.0 | 1.0 | 0.00 | 0.00 | 0.00 | ||
| 20260509021318 | 0 | 129 | 0.0 | 2.0 | 0.00 | 0.00 | 0.00 | ||
| 20260509020816 | 0 | 166 | 0.0 | 1.0 | 0.00 | 0.00 | 0.00 | ||
| 20260509020314 | 0 | 205 | 0.0 | 1.0 | 0.00 | 0.00 | 0.00 | 1011.8 | |
| 20260509015811 | 0 | 159 | 1.0 | 2.0 | 0.00 | 0.00 | 0.00 | 1011.8 | |
| 20260509015309 | 0 | 155 | 3.0 | 3.0 | 0.00 | 0.00 | 0.00 | 1011.8 | |
| 20260509014805 | 0 | 180 | 0.0 | 3.0 | 0.00 | 0.00 | 0.00 | 1011.8 | |
| 20260509014303 | 0 | 158 | 3.0 | 3.0 | 0.00 | 0.00 | 0.00 | 1011.8 | |
| 20260509013759 | 0 | 141 | 0.0 | 2.0 | 0.00 | 0.00 | 0.00 | 1011.8 | |
| 20260509013255 | 0 | 172 | 1.0 | 3.0 | 0.00 | 0.00 | 0.00 | 1011.8 | |
| 20260509012751 | 0 | 180 | 0.0 | 3.0 | 0.00 | 0.00 | 0.00 | 1011.8 | |
| 20260509012248 | 0 | 142 | 0.0 | 1.0 | 0.00 | 0.00 | 0.00 | 1011.8 | |
| 20260509011746 | 0 | 135 | 2.0 | 2.0 | 0.00 | 0.00 | 0.00 | 1011.8 | |
| 20260509011243 | 0 | 183 | 0.0 | 3.0 | 0.00 | 0.00 | 0.00 | 1011.8 | |
| 20260509010740 | 0 | 133 | 1.0 | 3.0 | 0.00 | 0.00 | 0.00 | 1011.8 | |
| 20260509010237 | 0 | 126 | 1.0 | 3.0 | 0.00 | 0.00 | 0.00 | 1011.5 | |
| 20260509005734 | 0 | 154 | 0.0 | 2.0 | 0.00 | 0.00 | 0.00 | 1011.5 | |
| 20260509005231 | 0 | 94 | 0.0 | 2.0 | 0.00 | 0.00 | 0.00 | 1011.5 | |
| 20260509004725 | 0 | 158 | 1.0 | 3.0 | 0.00 | 0.00 | 0.00 | 1011.5 | |
| 20260509004224 | 0 | 82 | 0.0 | 3.0 | 0.00 | 0.00 | 0.00 | 1011.5 | |
| 20260509003722 | 0 | 76 | 0.0 | 2.0 | 0.00 | 0.00 | 0.00 | 1011.5 | |
| 20260509003219 | 0 | 49 | 0.0 | 2.0 | 0.00 | 0.00 | 0.00 | 1011.5 | |
| 20260509002716 | 0 | 161 | 0.0 | 4.0 | 0.00 | 0.00 | 0.00 | 1011.5 | |
| 20260509002214 | 0 | 166 | 0.0 | 2.0 | 0.00 | 0.00 | 0.00 | 1011.8 | |
| 20260509001711 | 0 | 150 | 0.0 | 3.0 | 0.00 | 0.00 | 0.00 | 1011.8 | |
| 20260509001207 | 0 | 168 | 0.0 | 3.0 | 0.00 | 0.00 | 0.00 | 1011.8 | |
| 20260509000705 | 0 | 154 | 1.0 | 2.0 | 0.00 | 0.00 | 0.00 | 1011.8 | |
| 20260509000204 | 0 | 22 | 0.0 | 3.0 | 0.00 | 0.00 | 0.00 | 1011.8 | |
| 20260508235659 | 0 | 66 | 0.0 | 1.0 | 0.00 | 0.00 | 0.00 | 1011.8 | |
| 20260508235155 | 0 | 180 | 0.0 | 4.0 | 0.00 | 0.00 | 0.00 | 1011.8 | |
| 20260508234652 | 0 | 135 | 0.0 | 3.0 | 0.00 | 0.00 | 0.00 | 1011.8 | |
| 20260508234148 | 0 | 151 | 0.0 | 3.0 | 0.00 | 0.00 | 0.00 | 1011.8 | |
| 20260508233643 | 0 | 130 | 0.0 | 3.0 | 0.00 | 0.00 | 0.00 | 1011.9 | |
| 20260508233140 | 0 | 173 | 0.0 | 3.0 | 0.00 | 0.00 | 0.00 | 1011.7 | |
| 20260508232637 | 0 | 136 | 0.0 | 3.0 | 0.00 | 0.00 | 0.00 | 1011.8 | |
| 20260508232134 | 0 | 131 | 0.0 | 2.0 | 0.00 | 0.00 | 0.00 | ||
| 20260508231631 | 0 | 186 | 0.0 | 3.0 | 0.00 | 0.00 | 0.00 | ||
| 20260508231128 | 0 | 103 | 0.0 | 4.0 | 0.00 | 0.00 | 0.00 | ||
| 20260508230624 | 0 | 155 | 1.0 | 3.0 | 0.00 | 0.00 | 0.00 | ||
| 20260508230120 | 0 | 179 | 2.0 | 5.0 | 0.00 | 0.00 | 0.00 | ||
| 20260508225613 | 0 | 147 | 2.0 | 4.0 | 0.00 | 0.00 | 0.00 | ||
| 20260508225109 | 0 | 143 | 1.0 | 2.0 | 0.00 | 0.00 | 0.00 | ||
| 20260508224607 | 0 | 117 | 0.0 | 3.0 | 0.00 | 0.00 | 0.00 | ||
| 20260508224104 | 0 | 50 | 0.0 | 3.0 | 0.00 | 0.00 | 0.00 | ||
| 20260508223602 | 0 | 190 | 2.0 | 3.0 | 0.00 | 0.00 | 0.00 | ||
| 20260508223059 | 0 | 89 | 0.0 | 1.0 | 0.00 | 0.00 | 0.00 | ||
| 20260508222556 | 0 | 109 | 2.0 | 3.0 | 0.00 | 0.00 | 0.00 | ||
| 20260508222053 | 0 | 143 | 3.0 | 4.0 | 0.00 | 0.00 | 0.00 | 1012.3 | |
| 20260508221549 | 0 | 11 | 0.0 | 4.0 | 0.00 | 0.00 | 0.00 | 1012.3 | |
| 20260508221045 | 0 | 160 | 0.0 | 3.0 | 0.00 | 0.00 | 0.00 | 1012.3 | |
| 20260508220542 | 0 | 276 | 0.0 | 5.0 | 0.00 | 0.00 | 0.00 | 1012.3 | |
| 20260508220038 | 0 | 115 | 2.0 | 4.0 | 0.00 | 0.00 | 0.00 | 1012.3 | |
| 20260508215535 | 0 | 153 | 2.0 | 3.0 | 0.00 | 0.00 | 0.00 | 1012.3 | |
| 20260508215032 | 0 | 118 | 2.0 | 9.0 | 0.00 | 0.00 | 0.00 | 1012.3 | |
| 20260508214530 | 0 | 335 | 0.0 | 3.0 | 0.00 | 0.00 | 0.00 | 1012.3 | |
| 20260508214026 | 0 | 158 | 2.0 | 4.0 | 0.00 | 0.00 | 0.00 | 1012.3 | |
| 20260508213523 | 0 | 182 | 2.0 | 6.0 | 0.00 | 0.00 | 0.00 | 1012.3 | |
| 20260508213019 | 0 | 211 | 1.0 | 6.0 | 0.00 | 0.00 | 0.00 | 1012.3 | |
| 20260508212516 | 0 | 141 | 3.0 | 5.0 | 0.00 | 0.00 | 0.00 | ||
| 20260508212012 | 0 | 289 | 0.0 | 5.0 | 0.00 | 0.00 | 0.00 | ||
| 20260508211508 | 0 | 321 | 0.0 | 5.0 | 0.00 | 0.00 | 0.00 | ||
| 20260508211004 | 0 | 342 | 1.0 | 3.0 | 0.00 | 0.00 | 0.00 | ||
| 20260508210501 | 0 | 18 | 0.0 | 5.0 | 0.00 | 0.00 | 0.00 | ||
| 20260508205957 | 0 | 164 | 1.0 | 3.0 | 0.00 | 0.00 | 0.00 | ||
| 20260508205455 | 0 | 183 | 1.0 | 4.0 | 0.00 | 0.00 | 0.00 | ||
| 20260508204951 | 0 | 197 | 0.0 | 5.0 | 0.00 | 0.00 | 0.00 | ||
| 20260508204448 | 0 | 237 | 0.0 | 4.0 | 0.00 | 0.00 | 0.00 | ||
| 20260508203943 | 0 | 117 | 2.0 | 2.0 | 0.00 | 0.00 | 0.00 | ||
| 20260508203440 | 0 | 120 | 0.0 | 4.0 | 0.00 | 0.00 | 0.00 | ||
| 20260508202935 | 0 | 187 | 2.0 | 4.0 | 0.00 | 0.00 | 0.00 | 1014.2 | |
| 20260508202433 | 0 | 213 | 2.0 | 6.0 | 0.00 | 0.00 | 0.00 | 1014.2 | |
| 20260508201930 | 0 | 118 | 2.0 | 4.0 | 0.00 | 0.00 | 0.00 | 1014.2 | |
| 20260508201427 | 0 | 153 | 3.0 | 5.0 | 0.00 | 0.00 | 0.00 | 1014.2 | |
| 20260508200924 | 0 | 85 | 2.0 | 3.0 | 0.00 | 0.00 | 0.00 | 1014.2 | |
| 20260508200421 | 0 | 107 | 2.0 | 4.0 | 0.00 | 0.00 | 0.00 | 1014.2 | |
| 20260508195915 | 0 | 195 | 0.0 | 5.0 | 0.00 | 0.00 | 0.00 | 1014.2 | |
| 20260508195413 | 0 | 165 | 2.0 | 4.0 | 0.00 | 0.00 | 0.00 | 1014.2 | |
| 20260508194909 | 0 | 152 | 3.0 | 3.0 | 0.00 | 0.00 | 0.00 | 1014.2 | |
| 20260508194406 | 0 | 165 | 1.0 | 3.0 | 0.00 | 0.00 | 0.00 | 1014.2 | |
| 20260508193903 | 0 | 54 | 0.0 | 3.0 | 0.00 | 0.00 | 0.00 | 1014.2 | |
| 20260508193400 | 0 | 178 | 1.0 | 3.0 | 0.00 | 0.00 | 0.00 | 1014.3 | |
| 20260508192856 | 0 | 103 | 3.0 | 3.0 | 0.00 | 0.00 | 0.00 | 1014.3 | |
| 20260508192353 | 0 | 238 | 1.0 | 4.0 | 0.00 | 0.00 | 0.00 | 1014.3 | |
| 20260508191850 | 0 | 220 | 1.0 | 4.0 | 0.00 | 0.00 | 0.00 | 1014.3 | |
| 20260508191348 | 0 | 38 | 2.0 | 7.0 | 0.00 | 0.00 | 0.00 | 1014.6 | |
| 20260508190845 | 0 | 261 | 0.0 | 2.0 | 0.00 | 0.00 | 0.00 | 1014.6 | |
| 20260508190341 | 0 | 214 | 0.0 | 3.0 | 0.00 | 0.00 | 0.00 | 1014.6 | |
| 20260508185837 | 0 | 194 | 0.0 | 3.0 | 0.00 | 0.00 | 0.00 | 1014.6 | |
| 20260508185335 | 0 | 83 | 2.0 | 5.0 | 0.00 | 0.00 | 0.00 | 1014.7 | |
| 20260508184832 | 0 | 169 | 3.0 | 5.0 | 0.00 | 0.00 | 0.00 | 1014.7 | |
| 20260508184330 | 0 | 166 | 2.0 | 2.0 | 0.00 | 0.00 | 0.00 | 1014.8 | |
| 20260508183826 | 0 | 328 | 1.0 | 4.0 | 0.00 | 0.00 | 0.00 | 1014.8 | |
| 20260508183323 | 0 | 158 | 2.0 | 3.0 | 0.00 | 0.00 | 0.00 | 1015.2 | |
| 20260508182818 | 0 | 13 | 0.0 | 4.0 | 0.00 | 0.00 | 0.00 | 1015.2 | |
| 20260508182316 | 0 | 309 | 3.0 | 4.0 | 0.00 | 0.00 | 0.00 | 1015.2 | |
| 20260508181811 | 0 | 281 | 1.0 | 2.0 | 0.00 | 0.00 | 0.00 | 1015.2 | |
| 20260508181308 | 0 | 164 | 2.0 | 4.0 | 0.00 | 0.00 | 0.00 | 1015.2 | |
| 20260508180805 | 0 | 165 | 1.0 | 3.0 | 0.00 | 0.00 | 0.00 | 1015.2 | |
| 20260508180302 | 0 | 83 | 1.0 | 2.0 | 0.00 | 0.00 | 0.00 | 1015.2 | |
| 20260508175758 | 0 | 116 | 0.0 | 1.0 | 0.00 | 0.00 | 0.00 | 1015.7 | |
| 20260508175255 | 0 | 342 | 1.0 | 2.0 | 0.00 | 0.00 | 0.00 | 1015.7 | |
| 20260508174753 | 0 | 20 | 3.0 | 5.0 | 0.00 | 0.00 | 0.00 | 1015.7 | |
| 20260508174250 | 0 | 193 | 0.0 | 2.0 | 0.00 | 0.00 | 0.00 | 1015.7 | |
| 20260508173747 | 0 | 57 | 0.0 | 3.0 | 0.00 | 0.00 | 0.00 | 1015.7 | |
| 20260508173242 | 0 | 209 | 0.0 | 2.0 | 0.00 | 0.00 | 0.00 | 1015.7 | |
| 20260508172739 | 0 | 18 | 0.0 | 4.0 | 0.00 | 0.00 | 0.00 | 1015.7 | |
| 20260508172237 | 0 | 142 | 2.0 | 3.0 | 0.00 | 0.00 | 0.00 | 1015.7 | |
| 20260508171733 | 0 | 41 | 2.0 | 4.0 | 0.00 | 0.00 | 0.00 | 1015.8 |